Location: Shepherdstown, WV
(39.4326°N, 77.8042°W)
Time: 17:51:08
(UTC-04:00)

Vanguard 3 - Pass Details

Date: 26 July 2021
Orbit: 510 x 3260 km, 33.3° (Epoch: 18 September)

Event Time Altitude Azimuth Distance (km) Brightness Sun altitude
Rises 21:05:34 0° 247° (WSW) 6,393 12.3 -7.0°
Reaches altitude 10° 21:09:25 10° 245° (WSW) 5,635 11.9 -7.6°
Maximum altitude 21:27:52 68° 167° (SSE) 3,424 10.1 -10.6°
Drops below altitude 10° 21:46:15 10° 90° (E) 5,619 11.0 -13.4°
Sets 21:50:04 0° 88° (E) 6,376 11.3 -13.9°
